sat.trackr.live / text

‹ back to catalog

ONEWEB-0320

NORAD 49190 · 2021-083E

PAYLOAD ACTIVE UNKNOWN

§ Identity

Operator
Country
UK
Launch date
2021-09-14
Launch site
TYMSC
Launch vehicle
Mass (kg)
RCS (m²)

Purposes: comms

External: N2YO · Heavens-Above · Gunter

§ Orbital elements

Epoch: 2026-09-19T22:21:59.241888Z

Period
109.20 min
Inclination
87.9148°
Eccentricity
0.0002036
Mean motion
13.18687335 rev/d
Perigee alt
1,188.2 km
Apogee alt
1,191.3 km
Semi-major
7,567.9 km
B*
-1.6762e-4
RAAN
316.6308°
Arg perigee
104.3148°
Mean anomaly
255.8210°
Rev number
24,246

§ Raw data

ONEWEB-03201 49190U 21083E   26262.93193567 -.00000053  00000+0 -16762-3 0  99922 49190  87.9148 316.6308 0002036 104.3148 255.8210 13.18687335242467

JSON: /api/v1/satellites/49190 · /tle

For live sub-satellite position, see the globe view (requires WebGL).

§ Visibility from observer

Set your observer location to see the next 7 days of passes ≥ 10°. The values pass through the URL so the page stays shareable.

No JS? Fill the form by hand. The geolocation button needs JavaScript.